User: anonymous   Login
Location: Veytaux
(46.4185°N, 6.9320°E)
Time: 19:19:39
(UTC+00:00)
Language:

Cosmos 2297 - Orbit

View from above orbital plane
View from above orbital plane
View from above satellite
View from above satellite

Ground track
Ground track

The orbit data is extracted from the following two-line orbital elements,

1 23404U 94077A   22229.46998253 -.00000028  00000-0  10165-4 0  9991
2 23404  71.0132 302.0770 0015471 169.8269 190.3169 14.13573795430727
Epoch (UTC): 17 August 2022 11:16:46
Eccentricity: 0.0015471
inclination: 71.0132°
perigee height: 836 km
apogee height: 858 km
right ascension of ascending node: 302.0770°
argument of perigee: 169.8269°
revolutions per day: 14.13573795
mean anomaly at epoch: 190.3169°
orbit number at epoch: 43072

The dashed part of the orbit path shows where the satellite is in the earth's shadow,  

DLR